| time (UTC) | temp C | wind direction | speed KPH | gust KPH | rain 1hr cm | rain 24hr cm | rain mn cm | humidity % | barometer mb |
| 20260506011503 | 7 | 115 | 14.5 | 19.3 | 0.00 | 0.03 | 0.00 | 81 | 1013.1 |
| 20260506010002 | 7 | 119 | 12.9 | 19.3 | 0.00 | 0.03 | 0.00 | 80 | 1013.1 |
| 20260506004501 | 8 | 120 | 11.3 | 16.1 | 0.00 | 0.03 | 0.00 | 80 | 1013.2 |
| 20260506003002 | 8 | 118 | 14.5 | 19.3 | 0.00 | 0.03 | 0.00 | 80 | 1013.3 |
| 20260506001600 | 8 | 118 | 14.5 | 19.3 | 0.00 | 0.03 | 0.00 | 81 | 1013.2 |
| 20260506000100 | 8 | 121 | 14.5 | 17.7 | 0.00 | 0.03 | 0.00 | 82 | 1013.2 |
| 20260505234557 | 8 | 122 | 14.5 | 19.3 | 0.00 | 0.03 | 0.00 | 82 | 1013.2 |
| 20260505233104 | 8 | 152 | 11.3 | 16.1 | 0.00 | 0.03 | 0.00 | 83 | 1013.2 |
| 20260505231607 | 8 | 211 | 3.2 | 8.0 | 0.00 | 0.03 | 0.00 | 81 | 1013.1 |
| 20260505230051 | 8 | 212 | 3.2 | 6.4 | 0.00 | 0.03 | 0.00 | 81 | 1013.1 |
| 20260505224554 | 8 | 208 | 3.2 | 6.4 | 0.00 | 0.03 | 0.03 | 81 | 1013.2 |
| 20260505223049 | 8 | 204 | 3.2 | 6.4 | 0.00 | 0.03 | 0.03 | 81 | 1013.2 |
| 20260505221549 | 8 | 204 | 1.6 | 4.8 | 0.00 | 0.03 | 0.03 | 80 | 1013.2 |
| 20260505220051 | 8 | 220 | 3.2 | 8.0 | 0.00 | 0.03 | 0.03 | 80 | 1013.2 |
| 20260505214555 | 9 | 232 | 4.8 | 6.4 | 0.00 | 0.03 | 0.03 | 79 | 1013.1 |
| 20260505213047 | 9 | 323 | 3.2 | 4.8 | 0.00 | 0.03 | 0.03 | 79 | 1013.1 |
| 20260505211547 | 10 | 349 | 1.6 | 8.0 | 0.00 | 0.03 | 0.03 | 79 | 1013.2 |
| 20260505210047 | 10 | 305 | 1.6 | 6.4 | 0.00 | 0.03 | 0.03 | 79 | 1013.2 |
| 20260505204545 | 10 | 345 | 3.2 | 6.4 | 0.00 | 0.03 | 0.03 | 79 | 1013.2 |
| 20260505203105 | 10 | 329 | 4.8 | 9.7 | 0.00 | 0.03 | 0.03 | 78 | 1013.2 |
| 20260505201547 | 10 | 350 | 4.8 | 9.7 | 0.00 | 0.03 | 0.03 | 78 | 1013.3 |
| 20260505200050 | 10 | 343 | 4.8 | 8.0 | 0.00 | 0.03 | 0.03 | 78 | 1013.3 |
| 20260505194544 | 10 | 332 | 4.8 | 8.0 | 0.00 | 0.03 | 0.03 | 77 | 1013.2 |
| 20260505193044 | 10 | 336 | 4.8 | 9.7 | 0.00 | 0.03 | 0.03 | 76 | 1013.1 |
| 20260505191547 | 10 | 315 | 1.6 | 6.4 | 0.00 | 0.03 | 0.03 | 75 | 1013.0 |
| 20260505190045 | 10 | 340 | 1.6 | 8.0 | 0.00 | 0.03 | 0.03 | 74 | 1012.9 |
| 20260505184542 | 11 | 301 | 3.2 | 9.7 | 0.00 | 0.03 | 0.03 | 73 | 1013.0 |
| 20260505183043 | 11 | 359 | 3.2 | 12.9 | 0.00 | 0.03 | 0.03 | 73 | 1012.9 |
| 20260505181544 | 11 | 311 | 8.0 | 16.1 | 0.00 | 0.03 | 0.03 | 74 | 1013.0 |
| 20260505180039 | 11 | 287 | 4.8 | 14.5 | 0.00 | 0.03 | 0.03 | 74 | 1013.0 |
| 20260505174542 | 11 | 286 | 8.0 | 14.5 | 0.00 | 0.03 | 0.03 | 73 | 1013.0 |
| 20260505173039 | 11 | 333 | 6.4 | 16.1 | 0.00 | 0.03 | 0.03 | 73 | 1013.0 |
| 20260505171543 | 11 | 296 | 6.4 | 12.9 | 0.00 | 0.03 | 0.03 | 74 | 1013.1 |
| 20260505170052 | 11 | 340 | 11.3 | 17.7 | 0.00 | 0.03 | 0.03 | 75 | 1013.2 |
| 20260505164541 | 11 | 288 | 9.7 | 19.3 | 0.00 | 0.03 | 0.03 | 75 | 1013.2 |
| 20260505163037 | 11 | 308 | 12.9 | 17.7 | 0.00 | 0.03 | 0.03 | 75 | 1013.2 |
| 20260505161536 | 11 | 264 | 11.3 | 20.9 | 0.00 | 0.03 | 0.03 | 75 | 1013.2 |
| 20260505153037 | 11 | 323 | 4.8 | 12.9 | 0.00 | 0.03 | 0.03 | 74 | 1013.2 |
| 20260505151550 | 11 | 354 | 3.2 | 8.0 | 0.00 | 0.03 | 0.03 | 76 | 1013.1 |
| 20260505124523 | 12 | 275 | 9.7 | 17.7 | 0.00 | 0.03 | 0.03 | 76 | 1013.5 |
| 20260505123022 | 12 | 332 | 6.4 | 14.5 | 0.00 | 0.03 | 0.03 | 79 | 1013.4 |
| 20260505121523 | 11 | 344 | 6.4 | 17.7 | 0.00 | 0.03 | 0.03 | 79 | 1013.5 |
| 20260505120021 | 12 | 336 | 12.9 | 17.7 | 0.00 | 0.03 | 0.03 | 77 | 1013.5 |
| 20260505114520 | 12 | 25 | 6.4 | 19.3 | 0.00 | 0.03 | 0.03 | 79 | 1013.6 |
| 20260505113021 | 12 | 354 | 6.4 | 14.5 | 0.00 | 0.03 | 0.03 | 79 | 1013.6 |
| 20260505111516 | 12 | 274 | 4.8 | 9.7 | 0.00 | 0.03 | 0.03 | 80 | 1013.6 |
| 20260505101513 | 10 | 342 | 16.1 | 20.9 | 0.00 | 0.03 | 0.03 | 85 | 1013.7 |
| 20260505100011 | 10 | 332 | 9.7 | 19.3 | 0.00 | 0.03 | 0.03 | 84 | 1013.7 |
| 20260505094508 | 10 | 4 | 6.4 | 17.7 | 0.00 | 0.03 | 0.03 | 84 | 1013.6 |
| 20260505093015 | 11 | 302 | 8.0 | 20.9 | 0.00 | 0.03 | 0.03 | 85 | 1013.6 |
| 20260505091507 | 11 | 222 | 14.5 | 22.5 | 0.00 | 0.03 | 0.03 | 85 | 1013.6 |
| 20260505090009 | 10 | 301 | 14.5 | 27.4 | 0.00 | 0.03 | 0.03 | 86 | 1013.6 |
| 20260505084508 | 10 | 292 | 16.1 | 24.1 | 0.00 | 0.03 | 0.03 | 86 | 1013.6 |
| 20260505083007 | 10 | 301 | 12.9 | 16.1 | 0.00 | 0.03 | 0.03 | 87 | 1013.6 |
| 20260505081502 | 10 | 318 | 11.3 | 17.7 | 0.00 | 0.03 | 0.03 | 87 | 1013.5 |
| 20260505080058 | 10 | 296 | 14.5 | 19.3 | 0.00 | 0.03 | 0.03 | 88 | 1013.6 |
| 20260505074556 | 10 | 299 | 9.7 | 17.7 | 0.00 | 0.03 | 0.03 | 88 | 1013.6 |
| 20260505073058 | 10 | 286 | 12.9 | 17.7 | 0.00 | 0.03 | 0.03 | 88 | 1013.6 |
| 20260505071553 | 10 | 297 | 11.3 | 16.1 | 0.00 | 0.03 | 0.03 | 88 | 1013.6 |
| 20260505070048 | 9 | 306 | 11.3 | 17.7 | 0.00 | 0.03 | 0.03 | 89 | 1013.6 |
| 20260505064548 | 9 | 258 | 3.2 | 8.0 | 0.00 | 0.03 | 0.03 | 88 | 1013.7 |
| 20260505063048 | 9 | 293 | 4.8 | 12.9 | 0.00 | 0.03 | 0.03 | 89 | 1013.8 |
| 20260505061548 | 8 | 359 | 3.2 | 8.0 | 0.00 | 0.03 | 0.03 | 88 | 1013.7 |
| 20260505060045 | 9 | 319 | 8.0 | 17.7 | 0.00 | 0.03 | 0.03 | 89 | 1013.7 |
| 20260505054545 | 9 | 50 | 3.2 | 16.1 | 0.00 | 0.03 | 0.03 | 90 | 1013.6 |
| 20260505053044 | 8 | 293 | 4.8 | 16.1 | 0.00 | 0.03 | 0.03 | 91 | 1013.6 |
| 20260505051538 | 7 | 231 | 1.6 | 11.3 | 0.00 | 0.03 | 0.03 | 90 | 1013.4 |
| 20260505041535 | 7 | 233 | 4.8 | 8.0 | 0.00 | 0.05 | 0.03 | 90 | 1013.3 |
| 20260505040034 | 7 | 230 | 4.8 | 12.9 | 0.03 | 0.05 | 0.03 | 90 | 1013.4 |
| 20260505034535 | 7 | 233 | 3.2 | 11.3 | 0.03 | 0.05 | 0.03 | 90 | 1013.3 |
| 20260505033052 | 7 | 228 | 4.8 | 12.9 | 0.03 | 0.05 | 0.03 | 90 | 1013.3 |
| 20260505031531 | 7 | 234 | 4.8 | 8.0 | 0.03 | 0.05 | 0.03 | 90 | 1013.5 |
| 20260505030030 | 7 | 233 | 4.8 | 8.0 | 0.00 | 0.03 | 0.00 | 90 | 1013.5 |
| 20260505024529 | 6 | 227 | 3.2 | 11.3 | 0.00 | 0.03 | 0.00 | 89 | 1013.5 |
| 20260505023027 | 7 | 228 | 3.2 | 6.4 | 0.00 | 0.03 | 0.00 | 89 | 1013.6 |
| 20260505021528 | 7 | 227 | 3.2 | 8.0 | 0.00 | 0.03 | 0.00 | 89 | 1013.6 |
| 20260505020024 | 7 | 229 | 4.8 | 9.7 | 0.00 | 0.03 | 0.00 | 89 | 1013.7 |
| 20260505014522 | 7 | 233 | 4.8 | 8.0 | 0.00 | 0.03 | 0.00 | 89 | 1013.8 |
| 20260505013019 | 7 | 223 | 4.8 | 8.0 | 0.00 | 0.03 | 0.00 | 89 | 1013.9 |